Flag for Colombia Weather past 2 weeks in Santa Marta, Colombia

Now
90 °F

Scattered clouds.


Feels Like: 103 °F
Forecast: N/A
Wind: 17 mph from Northeast

Location: Barranquilla / Ernestocortissoz

Current Time: Jul 29, 2014 at 4:33:49 PM

Latest Report: Jul 29, 2014 at 4:00 PM


Visibility: N/A

Pressure: 29.81 "Hg

Humidity: 67%

Dew point: 77 °F

Location of Santa MartaLocation

Historic Weather in Santa Marta — Graph

°F

Santa Marta temperature yesterday

Maximum temperature yesterday: 95 °F (at 2:00 PM)
Minimum temperature yesterday: 79 °F (at 3:00 AM)
Average temperature yesterday: 85 °F

Past Weeks' High & Low Weather Summary

 TemperatureHumidityPressure
High99 °F (Jul 20, 12:00 PM)100% (Jul 15, 5:00 AM)29.95 "Hg (Jul 15, 5:00 AM)
Low77 °F (Jul 15, 3:00 AM)18% (Jul 24, 11:00 AM)29.70 "Hg (Jul 24, 2:00 PM)
Average85 °F79%29.82 "Hg
* Reported Jul 14 3:00 PM — Jul 29 3:00 PM, Santa Marta, Weather by CustomWeather, © 2014

Note: Actual official high and low records may vary slightly from our data, if they occured in-between our weather recording intervals... More about our weather records

Advertising

Santa Marta weather history for previous 24 hours

 ConditionsComfort  
Time TempWeatherWind HumidityBarometerVisibility
3:00 PM
Jul 29
86 °FScattered clouds.10 mph75%29.80 "HgN/A
2:00 PM90 °FScattered clouds.7 mph67%29.82 "HgN/A
1:00 PM93 °FPassing clouds.12 mph63%29.83 "HgN/A
12:00 PM93 °FScattered clouds.7 mph63%29.84 "HgN/A
11:00 AM97 °FPassing clouds.9 mph60%29.85 "HgN/A
10:00 AM93 °FSunny.6 mph59%29.86 "Hg10 mi
9:00 AM90 °FSunny.5 mph71%29.85 "Hg10 mi
8:00 AM86 °FSunny.7 mph75%29.86 "Hg10 mi
7:00 AM82 °FScattered clouds.7 mph84%29.85 "HgN/A
6:00 AM81 °FFog.7 mph89%29.83 "Hg4 mi
5:00 AM81 °FClear.8 mph89%29.82 "Hg10 mi
4:00 AM81 °FClear.8 mph89%29.81 "Hg10 mi
3:00 AM81 °FClear.9 mph89%29.82 "Hg10 mi
2:00 AM81 °FClear.14 mph89%29.82 "Hg10 mi
1:00 AM82 °FClear.15 mph84%29.83 "Hg10 mi
12:00 AM82 °FClear.8 mph84%29.84 "Hg10 mi
11:00 PM
Jul 28
82 °FClear.14 mph84%29.85 "Hg10 mi
10:00 PM82 °FClear.8 mph84%29.84 "Hg10 mi
9:00 PM82 °FClear.10 mph84%29.83 "Hg10 mi
8:00 PM84 °FPassing clouds.8 mph79%29.81 "HgN/A
7:00 PM84 °FPassing clouds.12 mph79%29.80 "HgN/A
6:00 PM86 °FScattered clouds.15 mph75%29.79 "HgN/A
5:00 PM90 °FPassing clouds.12 mph67%29.77 "HgN/A
4:00 PM90 °FPassing clouds.14 mph67%29.78 "HgN/A
Weather by CustomWeather, © 2014

See weather overviewHow to use our weather pages